星链-36827(STARLINK-36827)

导读

STARLINK-36827是美国太空探索技术公司SpaceX星链星座的组网卫星,于2026年2月22日发射入轨。星链星座旨在构建全球卫星互联网通信系统,为全球偏远地区、海洋空域等场景提供高速低延迟网络接入服务,这颗卫星承担着补充完善星座覆盖密度、提升星座服务能力的任务。

基本信息
目录编号:
67908
目录名称:
STARLINK-36827
国际标识:
2026-036E
轨道中心:
EARTH
卫星名称:
星链-36827
卫星全名:
星链-36827(STARLINK-36827)
卫星状态:
在轨 (已飞行111 天)
发射日期:
2026-02-22 UTC
国别 :
美国 (US)
星等 :
--
轨道信息
数据来源 国际轨道数据
星历时间: 2026-06-11T19:31:45+0800
1天前
查看轨道信息
半长轴: 6861.159km
偏心率: 0.0005114
轨道倾角: 43.012°
近地点辐角 268.076°
升交点赤经 75.803°
平近点角 91.950°
近地点: 479.513km
远地点: 486.531km
周期: 94.266分钟
每日圈数: 15.275892
详细信息
固有亮度:
5
最大亮度:
2.5
卫星平台:
Starlink V1.0
覆盖范围:
全球
运营商:
太空探索技术公司
运营商所在国:
美国
制造商(研发单位):
太空探索技术公司
制造商所在国:
美国
使用方式:
暂无
卫星简介
Starlink 计划是 SpaceX 推出的全球卫星互联网项目,通过发射低轨道卫星,为全球尤其是偏远地区提供高速、低延迟的互联网服务。自 2019 年起,Starlink 已部署数千颗卫星,旨在缩小全球数字鸿沟,推动互联网普及。该项目还为军事、航空等行业提供通信支持,带来广泛经济效益。
2D轨道图
3D轨道图
轨道高度分析图
轨道倾角分析图
轨道综合分析图
查看轨道综合分析图